Погода в Мироновке

Погода в Мироновке : погода сейчас, прогноз погоды и архив. Всё, что Вы хотите узнать о погоде в Мироновке!

Хотите узнать прогноз погоды в Мироновке? Тогда Вам сюда: Погода в Мироновке

Поиск расширенной информации на нашем сайте:

Другие новости

Новости СМИ2

Главная страница сайта

Новости сайта

03.07.2017

Напоминаем, что на нашем специализированном сайте Метеоцентр.Азия вы можете получить высокодетализированные автоматические прогнозы погоды по пунктам России, СНГ и мира в авиационном формате (включающие направление и скорость ветра, видимость, явления погоды, количество и форму облачности, нижнюю и верхнюю границу облачности).


Погода в Мироновке - сегодня

Время (UTC), дата Ветер
(°,м/с) 
Видим.   Явления Облачность Т
(°С)
Тd
(°С)
f(%) Тe
(°С)
Pmin
(гПа)
dP
(гПа)
Po
(мм)
O2
(г/м3)
Тmin Tmax R s Состояние
почвы
21 21.04.18 330 (СЗ) 45000 м    3/0 средняя 
[Ac trans]
+19.2 +4.3 37 +20  1006.5  1.6  742  278           
00 22.04.18 300 (СЗ) 40000 м    ясно 
+14 +0.7 40 +15  1008.6  1.8  743  285           
03 22.04.18 310 (СЗ) 20000 м    ясно 
+9.3 +0.7 55 +9  1010.8  1.8  744  290           
06 22.04.18 340 (С) 20000 м    ясно 
+13.1 -3.1 32 +12  1011.7  1.2  745  287  +8.9         
09 22.04.18 320 (СЗ) 20000 м    3/3 1000 м 
[Cu hum]
+16.6 -2.4 27 +16  1011.2  -0.3  745  283           
12 22.04.18 280 (З) 20000 м    3/3 1000 м 
[Cu hum]
+18.9 -1 26 +19  1009.7  -1.3  744  280           
15 22.04.18 320 (СЗ) 20000 м    3/3 600 м 
[Cu hum]
+17.6 -3.8 23 +18  1009.5  -0.3  744  282           
18 22.04.18 310 (СЗ) 45000 м    8/4 600 м средняя 
[Sc|Ac trans]
+16 -1.2 31 +17  1010.8  1.2  745  284    +19.6       
21 22.04.18 060 (СВ) 40000 м    5/5 1000 м 
[Sc]
+11.9 +1.3 48 +12  1012.5  1.4  746  288           
00 23.04.18 тихо ()   27000 м    10/0 средняя, верхняя 
[Ac trans|Cs]
+10 +1.4 55 +10  1013.2  0.5  746  290           
03 23.04.18 тихо ()   17000 м    6/0 средняя 
[Ac trans]
+7.5 +3.3 75 +8  1013.8  0.5  746  292           
06 23.04.18 010 (С) 20000 м    4/0 средняя 
[Ac trans]
+12.3 +2.2 50 +13  1014.4  0.9  747  288  +7         
12 23.04.18 330 (СЗ) 20000 м    5/5 1000 м 
[Cu med, cong]
+17.1 -0.7 30 +18  1013.9  -0.6  747  283           
15 23.04.18 060 (СВ) 20000 м    3/3 1000 м 
[Cu med, cong]
+16.5 -1.1 30 +17  1013.5  -0.5  747  284           
18 23.04.18 090 (В) 40000 м    ясно 
+13 +0.7 43 +14  1014.9  1.2  747  287    +18.5       
21 23.04.18 100 (В) 35000 м    ясно 
+10.1 +1.5 55 +11  1015.1  747  290           
00 24.04.18 130 (ЮВ) 26000 м    3/0 верхняя 
[Ci fib]
+8.7 +0.2 55 +10  1014.6  -0.6  747  292           
03 24.04.18 120 (ЮВ) 19000 м    3/0 средняя, верхняя 
[Ac cast|Ci fib]
+6.6 +0.2 64 +8  1013.9  -0.8  746  294           
06 24.04.18 200 (Ю) 20000 м    10/0 средняя, верхняя 
[Ac trans|Cs]
+13.2 +0.7 42 +13  1012.7  -0.7  746  287  +6.1         
09 24.04.18 260 (З) 19000 м  слаб. ливневой дождь  10/10 800 м кучево-дожд. 
[Cb cap]
+16.5 +6.1 50 +18  1012.2  -0.3  746  282           
12 24.04.18 220 (ЮЗ) 16000 м  {ливн. осадки}  10/8 800 м кучево-дожд., средняя 
[Cb calv|Ac und]
+14.6 +10 74 +16  1011.4  -0.9  745  283    -2.1       
15 24.04.18 290 (З) 20000 м    8/5 600 м кучево-дожд., средняя 
[Cb calv|Ac trans]
+19 +10.5 58 +22  1010  -1.1  744  278           
18 24.04.18 тихо ()   16000 м    10/3 600 м средняя, верхняя 
[Sc|Ac trans|Ci sp]
+14.9 +10.8 76 +17  1011.2  0.9  745  283    +19.5     
21 24.04.18 260 (З) 16000 м    8/0 средняя, верхняя 
[Ac trans|Ci sp]
+14.1 +9.7 75 +16  1012  0.8  745  284           
00 25.04.18 250 (З) 14000 м    10/0 средняя, верхняя 
[Ac trans|Cs]
+11.3 +8 80 +12  1012.6  0.4  746  287           
Время (UTC), дата Ветер
(°,м/с) 
Видим.   Явления Облачность Т
(°С)
Тd
(°С)
f(%) Тe
(°С)
Pmin
(гПа)
dP
(гПа)
Po
(мм)
O2
(г/м3)
Тmin Tmax R s Состояние
почвы

Для получения пояснительной информации подведите курсор к названию столбца.

ПОГОДА в Мироновке - архив

Всё, что Вы хотите узнать о погоде в Мироновке - удобно и подробно!

Выберите нужную дату (начиная с 1 января 2015* года) и нажмите кнопку "Найти".
Будут отображены архивные сводки погоды по пункту Мироновка, начиная с указанной даты.


Отображать данные в формате CSV (для использования в таблицах Excel)


Внимание! Наш архив погоды предназначен исключительно для личного некоммерческого использования в познавательных целях. Если Вам необходимы официальные справки о состоянии погоды (для производственных, юридических, коммерческих и т.п. целей), обращайтесь в органы Росгидромета.

*Примечание: данная дата относится к архиву по метеостанциям СССР (Россия, СНГ, Балтия).
Архив по метеостанциям Зарубежной Европы и Азии (кроме Китая) хранится 10 дней, по другим регионам земного шара (Китай, Африка, Америка, Австралия, Океания) - 1 день.

Мироновка - район местоположения метеостанции


Название, широта, долгота, высота метеостанции:
Мироновка 49.7°ш. 31°д. 153 м над ур. моря [Украина]

Дополнительная информация

В oтличие oт бoльшинства пoгoдных сайтoв мы публикуем пoдрoбную метеoинфoрмацию в детальнoм прoфессиoнальнoм фoрмате.

Характеристики температуры и влажнoсти вoздуха измеряются на высoте 2 м в тени вдали oт зданий и деревьев.
Скoрoсть ветра измеряется на высoте 10 м (на урoвне рoста челoвека скoрoсть ветра ниже в 1.5-2 раза). Если метеoстанция нахoдится в гoрoде или в лесу, тo скoрoсть ветра занижена на 2-4 м/с пo сравнению с oткрытым местoм. Скoрoсть ветра над акватoриями крупных рек и oзёр, а также на вершинах хoлмoв на 2-5 м/с выше, чем в oбычных услoвиях.
Атмoсфернoе давление в разных тoчках местнoсти мoжет значительнo oтличаться oт давления на метеoстанции, в зависимoсти oт услoвий рельефа (при пoдъёме на 10 м давление пoнижается примернo на 1 мм рт.ст.).